Wetterdaten: Mittwoch, 15.04.2015
Datum Zeit Auen-Temp. Temp gefhlt Luftfeuchte Luftdruck Regen Wind Richtung Richtung Taupunkt Windben
15.04.2015 00:00 7,2 C 6,8 C 60 % 1026,2 hPa 0,0 mm 0,0 km/h (0 Bft) N-NW 337 -0,0 C 3,1 km/h (1 Bft)
15.04.2015 00:05 7,6 C 7,1 C 60 % 1026,1 hPa 0,0 mm 0,0 km/h (0 Bft) N-NO 22 0,3 C 0,0 km/h (0 Bft)
15.04.2015 00:10 7,6 C 7,1 C 60 % 1026,1 hPa 0,0 mm 0,0 km/h (0 Bft) NO 45 0,3 C 0,0 km/h (0 Bft)
15.04.2015 00:12 7,1 C 6,8 C 60 % 1026,1 hPa 0,0 mm 0,0 km/h (0 Bft) NO 45 -0,1 C 0,0 km/h (0 Bft)
15.04.2015 00:17 6,9 C 6,7 C 60 % 1026,1 hPa 0,0 mm 0,0 km/h (0 Bft) NO 45 -0,3 C 0,0 km/h (0 Bft)
15.04.2015 00:22 6,6 C 6,5 C 60 % 1026,1 hPa 0,0 mm 0,0 km/h (0 Bft) NO 45 -0,6 C 0,0 km/h (0 Bft)
15.04.2015 00:27 7,1 C 6,8 C 61 % 1026,1 hPa 0,0 mm 0,0 km/h (0 Bft) NO 45 0,1 C 0,0 km/h (0 Bft)
15.04.2015 00:32 7,6 C 7,2 C 62 % 1026,1 hPa 0,0 mm 0,0 km/h (0 Bft) O-SO 112 0,8 C 0,0 km/h (0 Bft)
15.04.2015 00:37 7,1 C 6,9 C 60 % 1026,1 hPa 0,0 mm 0,0 km/h (0 Bft) O-NO 67 -0,1 C 0,0 km/h (0 Bft)
15.04.2015 00:42 7,4 C 7,1 C 61 % 1026,1 hPa 0,0 mm 0,0 km/h (0 Bft) O-NO 67 0,4 C 0,0 km/h (0 Bft)
15.04.2015 00:47 7,3 C 7,1 C 61 % 1026,1 hPa 0,0 mm 0,0 km/h (0 Bft) O-NO 67 0,3 C 0,0 km/h (0 Bft)
15.04.2015 00:52 7,7 C 7,4 C 61 % 1026,1 hPa 0,0 mm 0,0 km/h (0 Bft) O-SO 112 0,7 C 0,0 km/h (0 Bft)
15.04.2015 00:57 7,7 C 7,4 C 60 % 1026,1 hPa 0,0 mm 0,0 km/h (0 Bft) SO 135 0,4 C 0,0 km/h (0 Bft)
15.04.2015 01:02 7,1 C 6,9 C 60 % 1025,8 hPa 0,0 mm 0,0 km/h (0 Bft) SO 135 -0,1 C 0,0 km/h (0 Bft)
15.04.2015 01:07 6,8 C 6,7 C 60 % 1025,8 hPa 0,0 mm 0,0 km/h (0 Bft) O 90 -0,4 C 0,0 km/h (0 Bft)
15.04.2015 01:12 6,9 C 6,7 C 60 % 1025,8 hPa 0,0 mm 0,0 km/h (0 Bft) O-NO 67 -0,3 C 0,0 km/h (0 Bft)
15.04.2015 01:16 6,9 C 6,7 C 60 % 1025,8 hPa 0,0 mm 0,0 km/h (0 Bft) O-NO 67 -0,3 C 0,0 km/h (0 Bft)
15.04.2015 01:20 6,8 C 6,6 C 60 % 1025,8 hPa 0,0 mm 0,0 km/h (0 Bft) N-NO 22 -0,4 C 0,0 km/h (0 Bft)
15.04.2015 01:25 6,9 C 6,7 C 61 % 1025,5 hPa 0,0 mm 0,0 km/h (0 Bft) N-NO 22 -0,1 C 0,0 km/h (0 Bft)
15.04.2015 01:30 7,0 C 6,8 C 61 % 1025,5 hPa 0,0 mm 0,0 km/h (0 Bft) N-NW 337 0,0 C 0,0 km/h (0 Bft)
15.04.2015 01:35 7,2 C 7,0 C 61 % 1025,5 hPa 0,0 mm 0,3 km/h (0 Bft) O-SO 112 0,2 C 0,0 km/h (0 Bft)
15.04.2015 01:40 7,3 C 7,0 C 61 % 1025,5 hPa 0,0 mm 0,3 km/h (0 Bft) O 90 0,3 C 0,0 km/h (0 Bft)
15.04.2015 01:45 7,4 C 7,1 C 60 % 1025,3 hPa 0,0 mm 0,3 km/h (0 Bft) O-NO 67 0,2 C 4,1 km/h (1 Bft)
15.04.2015 01:50 7,6 C 7,3 C 60 % 1025,3 hPa 0,0 mm 0,3 km/h (0 Bft) O-NO 67 0,3 C 0,0 km/h (0 Bft)
15.04.2015 01:55 7,4 C 7,1 C 60 % 1025,3 hPa 0,0 mm 0,0 km/h (0 Bft) NO 45 0,2 C 0,0 km/h (0 Bft)
15.04.2015 02:00 7,3 C 7,0 C 60 % 1025,3 hPa 0,0 mm 0,0 km/h (0 Bft) O-NO 67 0,1 C 0,0 km/h (0 Bft)
15.04.2015 02:05 7,1 C 6,9 C 60 % 1025,2 hPa 0,0 mm 0,0 km/h (0 Bft) O-SO 112 -0,1 C 0,0 km/h (0 Bft)
15.04.2015 02:10 6,9 C 6,7 C 60 % 1025,2 hPa 0,0 mm 0,0 km/h (0 Bft) O-SO 112 -0,3 C 0,0 km/h (0 Bft)
15.04.2015 02:15 6,8 C 6,6 C 60 % 1025,2 hPa 0,0 mm 0,0 km/h (0 Bft) NO 45 -0,4 C 0,0 km/h (0 Bft)
15.04.2015 02:20 6,8 C 6,6 C 60 % 1025,2 hPa 0,0 mm 0,0 km/h (0 Bft) NO 45 -0,4 C 0,0 km/h (0 Bft)
15.04.2015 02:25 7,1 C 6,8 C 60 % 1025,1 hPa 0,0 mm 0,0 km/h (0 Bft) O-NO 67 -0,1 C 0,0 km/h (0 Bft)
15.04.2015 02:30 6,8 C 6,6 C 60 % 1025,1 hPa 0,0 mm 0,0 km/h (0 Bft) O-NO 67 -0,4 C 0,0 km/h (0 Bft)
15.04.2015 02:35 6,6 C 6,4 C 60 % 1025,1 hPa 0,0 mm 0,0 km/h (0 Bft) NO 45 -0,6 C 0,0 km/h (0 Bft)
15.04.2015 02:40 6,4 C 6,3 C 60 % 1025,1 hPa 0,0 mm 0,0 km/h (0 Bft) NO 45 -0,8 C 0,0 km/h (0 Bft)
15.04.2015 02:45 6,3 C 6,2 C 60 % 1025,1 hPa 0,0 mm 0,0 km/h (0 Bft) O-NO 67 -0,9 C 0,0 km/h (0 Bft)
15.04.2015 02:50 6,3 C 6,2 C 61 % 1025,1 hPa 0,0 mm 0,0 km/h (0 Bft) NO 45 -0,7 C 0,0 km/h (0 Bft)
15.04.2015 02:55 6,8 C 6,5 C 61 % 1025,1 hPa 0,0 mm 0,0 km/h (0 Bft) O-SO 112 -0,2 C 0,0 km/h (0 Bft)
15.04.2015 03:00 6,5 C 6,3 C 60 % 1025,1 hPa 0,0 mm 0,0 km/h (0 Bft) O-NO 67 -0,7 C 0,0 km/h (0 Bft)
15.04.2015 03:05 6,4 C 6,2 C 61 % 1024,8 hPa 0,0 mm 0,0 km/h (0 Bft) O-SO 112 -0,6 C 0,0 km/h (0 Bft)
15.04.2015 03:10 6,4 C 6,2 C 61 % 1024,8 hPa 0,0 mm 0,0 km/h (0 Bft) O-NO 67 -0,6 C 0,0 km/h (0 Bft)
15.04.2015 03:15 6,4 C 6,2 C 61 % 1024,8 hPa 0,0 mm 0,3 km/h (0 Bft) O-SO 112 -0,6 C 0,0 km/h (0 Bft)
15.04.2015 03:20 6,1 C 6,0 C 60 % 1024,8 hPa 0,0 mm 0,3 km/h (0 Bft) O-NO 67 -1,1 C 0,0 km/h (0 Bft)
15.04.2015 03:25 5,9 C 5,8 C 62 % 1024,8 hPa 0,0 mm 0,0 km/h (0 Bft) O-NO 67 -0,8 C 0,0 km/h (0 Bft)
15.04.2015 03:30 5,8 C 5,7 C 62 % 1024,8 hPa 0,0 mm 0,0 km/h (0 Bft) O-NO 67 -0,9 C 0,0 km/h (0 Bft)
15.04.2015 03:35 6,7 C 6,3 C 63 % 1024,8 hPa 0,0 mm 0,8 km/h (0 Bft) O 90 0,2 C 6,0 km/h (2 Bft)
15.04.2015 03:40 6,7 C 6,4 C 62 % 1024,8 hPa 0,0 mm 1,3 km/h (1 Bft) O 90 -0,1 C 2,8 km/h (1 Bft)
15.04.2015 03:45 6,6 C 6,4 C 61 % 1024,4 hPa 0,0 mm 1,3 km/h (1 Bft) O-NO 67 -0,4 C 0,0 km/h (0 Bft)
15.04.2015 03:50 6,8 C 6,5 C 61 % 1024,4 hPa 0,0 mm 0,8 km/h (0 Bft) O-SO 112 -0,2 C 3,4 km/h (1 Bft)
15.04.2015 03:55 6,4 C 6,3 C 60 % 1024,4 hPa 0,0 mm 0,3 km/h (0 Bft) O-NO 67 -0,8 C 0,0 km/h (0 Bft)
15.04.2015 04:00 6,2 C 6,1 C 60 % 1024,4 hPa 0,0 mm 0,5 km/h (0 Bft) SO 135 -1,0 C 0,0 km/h (0 Bft)
15.04.2015 04:05 6,1 C 6,0 C 60 % 1024,1 hPa 0,0 mm 0,3 km/h (0 Bft) O-NO 67 -1,1 C 0,0 km/h (0 Bft)
15.04.2015 04:10 5,9 C 5,8 C 62 % 1024,1 hPa 0,0 mm 0,0 km/h (0 Bft) NO 45 -0,8 C 0,0 km/h (0 Bft)
15.04.2015 04:15 6,1 C 6,0 C 61 % 1024,1 hPa 0,0 mm 0,0 km/h (0 Bft) NO 45 -0,8 C 0,0 km/h (0 Bft)
15.04.2015 04:20 6,0 C 5,9 C 61 % 1024,1 hPa 0,0 mm 0,0 km/h (0 Bft) O-NO 67 -0,9 C 0,0 km/h (0 Bft)
15.04.2015 04:25 6,3 C 6,0 C 61 % 1024,2 hPa 0,0 mm 0,3 km/h (0 Bft) NO 45 -0,7 C 3,4 km/h (1 Bft)
15.04.2015 04:30 6,7 C 6,3 C 60 % 1024,2 hPa 0,0 mm 0,3 km/h (0 Bft) NO 45 -0,5 C 0,0 km/h (0 Bft)
15.04.2015 04:35 6,1 C 5,8 C 60 % 1024,2 hPa 0,0 mm 0,3 km/h (0 Bft) O-NO 67 -1,1 C 3,6 km/h (1 Bft)
15.04.2015 04:40 5,6 C 5,5 C 61 % 1024,2 hPa 0,0 mm 0,5 km/h (0 Bft) NO 45 -1,3 C 0,0 km/h (0 Bft)
15.04.2015 04:45 5,2 C 5,1 C 62 % 1024,2 hPa 0,0 mm 1,0 km/h (0 Bft) NW 315 -1,5 C 7,0 km/h (2 Bft)
15.04.2015 04:50 5,1 C 4,9 C 62 % 1024,2 hPa 0,0 mm 0,8 km/h (0 Bft) N-NW 337 -1,6 C 0,0 km/h (0 Bft)
15.04.2015 04:55 5,1 C 4,8 C 63 % 1024,2 hPa 0,0 mm 0,3 km/h (0 Bft) N-NW 337 -1,4 C 0,0 km/h (0 Bft)
15.04.2015 05:00 5,1 C 4,8 C 63 % 1024,2 hPa 0,0 mm 0,0 km/h (0 Bft) N-NO 22 -1,4 C 3,6 km/h (1 Bft)
15.04.2015 05:05 5,3 C 5,0 C 63 % 1024,0 hPa 0,0 mm 0,0 km/h (0 Bft) N-NW 337 -1,2 C 0,0 km/h (0 Bft)
15.04.2015 05:10 5,1 C 4,9 C 63 % 1024,0 hPa 0,0 mm 0,3 km/h (0 Bft) NW 315 -1,4 C 0,0 km/h (0 Bft)
15.04.2015 05:15 5,4 C 5,2 C 63 % 1024,0 hPa 0,0 mm 0,5 km/h (0 Bft) N-NO 22 -1,1 C 0,0 km/h (0 Bft)
15.04.2015 05:20 5,7 C 5,4 C 63 % 1024,0 hPa 0,0 mm 0,3 km/h (0 Bft) N-NO 22 -0,8 C 0,0 km/h (0 Bft)
15.04.2015 05:25 5,9 C 5,5 C 63 % 1023,8 hPa 0,0 mm 0,3 km/h (0 Bft) NO 45 -0,6 C 0,0 km/h (0 Bft)
15.04.2015 05:30 5,4 C 5,2 C 62 % 1023,8 hPa 0,0 mm 0,3 km/h (0 Bft) N-NO 22 -1,3 C 0,0 km/h (0 Bft)
15.04.2015 05:35 5,5 C 5,1 C 63 % 1023,8 hPa 0,0 mm 0,0 km/h (0 Bft) O-NO 67 -1,0 C 0,0 km/h (0 Bft)
15.04.2015 05:40 5,2 C 5,0 C 62 % 1023,8 hPa 0,0 mm 0,3 km/h (0 Bft) O-NO 67 -1,5 C 0,0 km/h (0 Bft)
15.04.2015 05:45 5,4 C 5,2 C 63 % 1023,9 hPa 0,0 mm 0,5 km/h (0 Bft) N-NO 22 -1,1 C 0,0 km/h (0 Bft)
15.04.2015 05:50 5,3 C 5,1 C 63 % 1023,9 hPa 0,0 mm 0,3 km/h (0 Bft) N 360 -1,2 C 0,0 km/h (0 Bft)
15.04.2015 05:55 5,1 C 5,0 C 63 % 1023,9 hPa 0,0 mm 0,0 km/h (0 Bft) O-NO 67 -1,4 C 0,0 km/h (0 Bft)
15.04.2015 06:00 5,2 C 5,0 C 63 % 1023,9 hPa 0,0 mm 0,0 km/h (0 Bft) O-NO 67 -1,3 C 0,0 km/h (0 Bft)
15.04.2015 06:05 5,0 C 4,8 C 63 % 1023,9 hPa 0,0 mm 0,0 km/h (0 Bft) N-NO 22 -1,4 C 0,0 km/h (0 Bft)
15.04.2015 06:10 4,7 C 4,6 C 63 % 1023,9 hPa 0,0 mm 0,0 km/h (0 Bft) O-NO 67 -1,7 C 0,0 km/h (0 Bft)
15.04.2015 06:15 5,3 C 5,0 C 64 % 1023,9 hPa 0,0 mm 0,3 km/h (0 Bft) O 90 -0,9 C 2,6 km/h (1 Bft)
15.04.2015 06:20 5,4 C 5,1 C 63 % 1023,9 hPa 0,0 mm 0,3 km/h (0 Bft) O-SO 112 -1,1 C 0,0 km/h (0 Bft)
15.04.2015 06:25 5,0 C 4,9 C 62 % 1024,0 hPa 0,0 mm 0,3 km/h (0 Bft) N-NO 22 -1,7 C 0,0 km/h (0 Bft)
15.04.2015 06:30 5,4 C 5,1 C 63 % 1024,0 hPa 0,0 mm 0,3 km/h (0 Bft) N-NO 22 -1,1 C 4,9 km/h (1 Bft)
15.04.2015 06:35 5,0 C 4,8 C 62 % 1024,0 hPa 0,0 mm 0,3 km/h (0 Bft) NO 45 -1,7 C 0,0 km/h (0 Bft)
15.04.2015 06:40 4,5 C 4,4 C 62 % 1024,0 hPa 0,0 mm 0,3 km/h (0 Bft) NO 45 -2,1 C 0,0 km/h (0 Bft)
15.04.2015 06:45 4,2 C 4,0 C 63 % 1024,2 hPa 0,0 mm 0,0 km/h (0 Bft) O-NO 67 -2,2 C 0,0 km/h (0 Bft)
15.04.2015 06:50 4,4 C 4,2 C 63 % 1024,2 hPa 0,0 mm 0,0 km/h (0 Bft) NO 45 -2,0 C 0,0 km/h (0 Bft)
15.04.2015 06:55 4,3 C 4,2 C 63 % 1024,2 hPa 0,0 mm 0,0 km/h (0 Bft) NO 45 -2,1 C 0,0 km/h (0 Bft)
15.04.2015 07:00 4,9 C 4,7 C 64 % 1024,2 hPa 0,0 mm 0,0 km/h (0 Bft) N-NO 22 -1,3 C 0,0 km/h (0 Bft)
15.04.2015 07:05 5,4 C 5,2 C 64 % 1023,9 hPa 0,0 mm 0,0 km/h (0 Bft) NO 45 -0,9 C 0,0 km/h (0 Bft)
15.04.2015 07:10 5,5 C 5,5 C 62 % 1023,9 hPa 0,0 mm 0,0 km/h (0 Bft) N-NO 22 -1,2 C 0,0 km/h (0 Bft)
15.04.2015 07:15 5,8 C 5,8 C 62 % 1023,9 hPa 0,0 mm 0,0 km/h (0 Bft) N-NO 22 -0,9 C 0,0 km/h (0 Bft)
15.04.2015 07:20 5,9 C 6,0 C 63 % 1023,9 hPa 0,0 mm 0,0 km/h (0 Bft) N-NO 22 -0,6 C 0,0 km/h (0 Bft)
15.04.2015 07:25 5,9 C 6,5 C 62 % 1024,0 hPa 0,0 mm 0,0 km/h (0 Bft) W-NW 292 -0,8 C 0,0 km/h (0 Bft)
15.04.2015 07:30 5,9 C 6,8 C 62 % 1024,0 hPa 0,0 mm 0,0 km/h (0 Bft) W-NW 292 -0,8 C 0,0 km/h (0 Bft)
15.04.2015 07:35 6,2 C 7,0 C 60 % 1024,0 hPa 0,0 mm 0,0 km/h (0 Bft) NW 315 -1,0 C 0,0 km/h (0 Bft)
15.04.2015 07:40 6,2 C 7,3 C 60 % 1024,0 hPa 0,0 mm 0,3 km/h (0 Bft) W 270 -1,0 C 0,0 km/h (0 Bft)
15.04.2015 07:45 7,2 C 11,0 C 59 % 1024,0 hPa 0,0 mm 0,3 km/h (0 Bft) N-NW 337 -0,3 C 0,0 km/h (0 Bft)
15.04.2015 07:50 7,8 C 12,4 C 59 % 1024,0 hPa 0,0 mm 0,3 km/h (0 Bft) SO 135 0,3 C 0,0 km/h (0 Bft)
15.04.2015 07:55 8,4 C 13,9 C 58 % 1024,0 hPa 0,0 mm 0,0 km/h (0 Bft) W 270 0,6 C 0,0 km/h (0 Bft)
15.04.2015 08:00 8,8 C 14,4 C 58 % 1024,0 hPa 0,0 mm 0,5 km/h (0 Bft) N-NW 337 1,0 C 3,6 km/h (1 Bft)
15.04.2015 08:05 9,4 C 15,3 C 57 % 1023,9 hPa 0,0 mm 0,8 km/h (0 Bft) O-NO 67 1,3 C 0,0 km/h (0 Bft)
15.04.2015 08:10 9,9 C 16,3 C 57 % 1023,9 hPa 0,0 mm 0,8 km/h (0 Bft) O-NO 67 1,8 C 0,0 km/h (0 Bft)
15.04.2015 08:15 10,7 C 18,0 C 55 % 1023,9 hPa 0,0 mm 0,0 km/h (0 Bft) O 90 2,0 C 0,0 km/h (0 Bft)
15.04.2015 08:20 10,9 C 18,6 C 55 % 1023,9 hPa 0,0 mm 0,0 km/h (0 Bft) O-NO 67 2,2 C 0,0 km/h (0 Bft)
15.04.2015 08:25 11,1 C 19,5 C 54 % 1024,1 hPa 0,0 mm 0,0 km/h (0 Bft) O-NO 67 2,2 C 0,0 km/h (0 Bft)
15.04.2015 08:30 11,3 C 19,5 C 54 % 1024,1 hPa 0,0 mm 0,0 km/h (0 Bft) NO 45 2,3 C 0,0 km/h (0 Bft)
15.04.2015 08:35 11,7 C 20,2 C 53 % 1024,1 hPa 0,0 mm 0,0 km/h (0 Bft) NO 45 2,4 C 0,0 km/h (0 Bft)
15.04.2015 08:40 12,0 C 20,7 C 53 % 1024,1 hPa 0,0 mm 0,0 km/h (0 Bft) NO 45 2,7 C 0,0 km/h (0 Bft)
15.04.2015 08:45 12,4 C 21,5 C 53 % 1024,3 hPa 0,0 mm 0,0 km/h (0 Bft) NO 45 3,1 C 0,0 km/h (0 Bft)
15.04.2015 08:50 12,8 C 22,0 C 52 % 1024,3 hPa 0,0 mm 0,0 km/h (0 Bft) NO 45 3,2 C 0,0 km/h (0 Bft)
15.04.2015 08:55 13,4 C 23,3 C 50 % 1024,3 hPa 0,0 mm 0,0 km/h (0 Bft) NO 45 3,2 C 0,0 km/h (0 Bft)
15.04.2015 09:00 13,5 C 23,9 C 50 % 1024,3 hPa 0,0 mm 0,0 km/h (0 Bft) NO 45 3,3 C 0,0 km/h (0 Bft)
15.04.2015 09:05 14,0 C 24,8 C 49 % 1024,3 hPa 0,0 mm 0,0 km/h (0 Bft) NO 45 3,5 C 0,0 km/h (0 Bft)
15.04.2015 09:10 14,4 C 25,4 C 48 % 1024,3 hPa 0,0 mm 0,0 km/h (0 Bft) NO 45 3,5 C 0,0 km/h (0 Bft)
15.04.2015 09:15 15,0 C 25,4 C 47 % 1024,3 hPa 0,0 mm 0,0 km/h (0 Bft) NO 45 3,8 C 0,0 km/h (0 Bft)
15.04.2015 09:20 14,9 C 26,0 C 46 % 1024,3 hPa 0,0 mm 0,0 km/h (0 Bft) NO 45 3,4 C 0,0 km/h (0 Bft)
15.04.2015 09:25 15,3 C 26,9 C 46 % 1024,2 hPa 0,0 mm 0,0 km/h (0 Bft) NO 45 3,8 C 0,0 km/h (0 Bft)
15.04.2015 09:30 15,3 C 27,0 C 46 % 1024,2 hPa 0,0 mm 0,0 km/h (0 Bft) NO 45 3,8 C 0,0 km/h (0 Bft)
15.04.2015 09:35 15,8 C 26,9 C 45 % 1024,2 hPa 0,0 mm 0,3 km/h (0 Bft) W-SW 247 3,9 C 0,0 km/h (0 Bft)
15.04.2015 09:40 16,0 C 27,0 C 44 % 1024,2 hPa 0,0 mm 0,3 km/h (0 Bft) SW 225 3,8 C 0,0 km/h (0 Bft)
15.04.2015 09:45 16,5 C 27,4 C 44 % 1024,2 hPa 0,0 mm 0,0 km/h (0 Bft) S-SW 202 4,2 C 0,0 km/h (0 Bft)
15.04.2015 09:50 16,9 C 27,5 C 43 % 1024,2 hPa 0,0 mm 0,0 km/h (0 Bft) NW 315 4,2 C 0,0 km/h (0 Bft)
15.04.2015 09:55 17,1 C 27,4 C 42 % 1024,2 hPa 0,0 mm 0,3 km/h (0 Bft) N 360 4,1 C 0,0 km/h (0 Bft)
15.04.2015 10:00 17,5 C 27,2 C 40 % 1024,2 hPa 0,0 mm 0,8 km/h (0 Bft) O-NO 67 3,8 C 4,1 km/h (1 Bft)
15.04.2015 10:05 17,9 C 26,3 C 41 % 1024,2 hPa 0,0 mm 1,6 km/h (1 Bft) NW 315 4,5 C 4,9 km/h (1 Bft)
15.04.2015 10:10 18,2 C 26,2 C 40 % 1024,2 hPa 0,0 mm 2,1 km/h (1 Bft) N-NO 22 4,4 C 8,8 km/h (2 Bft)
15.04.2015 10:15 18,0 C 25,3 C 39 % 1024,2 hPa 0,0 mm 4,4 km/h (1 Bft) NW 315 3,8 C 9,8 km/h (2 Bft)
15.04.2015 10:20 17,9 C 24,6 C 39 % 1024,2 hPa 0,0 mm 5,4 km/h (1 Bft) O-NO 67 3,8 C 8,0 km/h (2 Bft)
15.04.2015 10:25 18,1 C 24,5 C 40 % 1024,3 hPa 0,0 mm 3,9 km/h (1 Bft) N-NW 337 4,3 C 3,4 km/h (1 Bft)
15.04.2015 10:30 18,3 C 24,7 C 40 % 1024,3 hPa 0,0 mm 2,8 km/h (1 Bft) SO 135 4,5 C 0,0 km/h (0 Bft)
15.04.2015 10:35 18,4 C 25,1 C 39 % 1024,3 hPa 0,0 mm 2,3 km/h (1 Bft) N-NO 22 4,2 C 3,1 km/h (1 Bft)
15.04.2015 10:40 18,5 C 25,1 C 39 % 1024,3 hPa 0,0 mm 2,8 km/h (1 Bft) O-NO 67 4,3 C 8,3 km/h (2 Bft)
15.04.2015 10:45 18,3 C 24,4 C 38 % 1024,3 hPa 0,0 mm 5,7 km/h (1 Bft) O-NO 67 3,7 C 12,2 km/h (2 Bft)
15.04.2015 10:50 18,2 C 23,8 C 38 % 1024,3 hPa 0,0 mm 7,5 km/h (2 Bft) O-NO 67 3,7 C 9,6 km/h (2 Bft)
15.04.2015 10:55 18,3 C 23,5 C 38 % 1024,3 hPa 0,0 mm 7,3 km/h (2 Bft) O-NO 67 3,7 C 12,4 km/h (3 Bft)
15.04.2015 11:00 18,4 C 23,6 C 37 % 1024,3 hPa 0,0 mm 6,7 km/h (2 Bft) NO 45 3,5 C 11,4 km/h (2 Bft)
15.04.2015 11:05 18,2 C 23,2 C 36 % 1024,3 hPa 0,0 mm 8,5 km/h (2 Bft) NO 45 2,9 C 15,8 km/h (3 Bft)
15.04.2015 11:10 18,2 C 23,0 C 36 % 1024,3 hPa 0,0 mm 8,8 km/h (2 Bft) O-NO 67 2,9 C 6,7 km/h (2 Bft)
15.04.2015 11:15 18,5 C 23,8 C 36 % 1024,3 hPa 0,0 mm 4,4 km/h (1 Bft) O-SO 112 3,2 C 2,6 km/h (1 Bft)
15.04.2015 11:20 18,7 C 24,3 C 36 % 1024,3 hPa 0,0 mm 3,9 km/h (1 Bft) N-NO 22 3,3 C 6,0 km/h (2 Bft)
15.04.2015 11:25 19,0 C 24,7 C 36 % 1024,4 hPa 0,0 mm 3,6 km/h (1 Bft) O-SO 112 3,6 C 4,9 km/h (1 Bft)
15.04.2015 11:30 19,2 C 25,1 C 35 % 1024,4 hPa 0,0 mm 2,6 km/h (1 Bft) N-NO 22 3,4 C 2,6 km/h (1 Bft)
15.04.2015 11:35 19,3 C 25,1 C 34 % 1024,4 hPa 0,0 mm 3,6 km/h (1 Bft) N 360 3,0 C 6,5 km/h (2 Bft)
15.04.2015 11:40 19,1 C 24,8 C 34 % 1024,4 hPa 0,0 mm 4,7 km/h (1 Bft) N-NW 337 2,9 C 3,4 km/h (1 Bft)
15.04.2015 11:45 19,1 C 24,5 C 33 % 1024,2 hPa 0,0 mm 6,5 km/h (2 Bft) O-NO 67 2,5 C 13,2 km/h (3 Bft)
15.04.2015 11:50 18,9 C 24,3 C 33 % 1024,2 hPa 0,0 mm 6,2 km/h (2 Bft) O-NO 67 2,3 C 8,3 km/h (2 Bft)
15.04.2015 11:55 19,1 C 24,2 C 32 % 1024,2 hPa 0,0 mm 7,0 km/h (2 Bft) N-NO 22 2,0 C 9,8 km/h (2 Bft)
15.04.2015 12:00 19,3 C 24,4 C 33 % 1024,2 hPa 0,0 mm 6,2 km/h (2 Bft) NW 315 2,6 C 4,7 km/h (1 Bft)
15.04.2015 12:05 19,5 C 24,9 C 33 % 1024,1 hPa 0,0 mm 5,4 km/h (1 Bft) NO 45 2,8 C 5,2 km/h (1 Bft)
15.04.2015 12:10 19,5 C 25,0 C 33 % 1024,1 hPa 0,0 mm 4,1 km/h (1 Bft) SO 135 2,8 C 0,0 km/h (0 Bft)
15.04.2015 12:15 20,0 C 25,9 C 33 % 1024,1 hPa 0,0 mm 3,1 km/h (1 Bft) N-NO 22 3,2 C 4,1 km/h (1 Bft)
15.04.2015 12:20 20,2 C 26,2 C 33 % 1024,1 hPa 0,0 mm 3,1 km/h (1 Bft) NW 315 3,4 C 9,8 km/h (2 Bft)
15.04.2015 12:25 20,4 C 26,3 C 33 % 1024,1 hPa 0,0 mm 3,1 km/h (1 Bft) O 90 3,6 C 3,6 km/h (1 Bft)
15.04.2015 12:30 20,7 C 26,4 C 33 % 1024,1 hPa 0,0 mm 4,4 km/h (1 Bft) N-NW 337 3,9 C 8,3 km/h (2 Bft)
15.04.2015 12:35 20,2 C 25,5 C 33 % 1024,1 hPa 0,0 mm 5,2 km/h (1 Bft) O-NO 67 3,4 C 4,7 km/h (1 Bft)
15.04.2015 12:40 20,2 C 24,9 C 33 % 1024,1 hPa 0,0 mm 6,0 km/h (2 Bft) N-NW 337 3,4 C 8,3 km/h (2 Bft)
15.04.2015 12:45 20,5 C 25,2 C 32 % 1023,9 hPa 0,0 mm 5,4 km/h (1 Bft) W 270 3,2 C 0,0 km/h (0 Bft)
15.04.2015 12:50 20,9 C 25,7 C 32 % 1023,9 hPa 0,0 mm 3,6 km/h (1 Bft) S-SO 157 3,6 C 0,0 km/h (0 Bft)
15.04.2015 12:55 21,2 C 26,2 C 32 % 1023,9 hPa 0,0 mm 2,8 km/h (1 Bft) N-NO 22 3,8 C 3,6 km/h (1 Bft)
15.04.2015 13:00 21,4 C 26,4 C 33 % 1023,9 hPa 0,0 mm 4,1 km/h (1 Bft) N-NW 337 4,5 C 9,6 km/h (2 Bft)
15.04.2015 13:05 21,5 C 26,2 C 32 % 1023,5 hPa 0,0 mm 6,5 km/h (2 Bft) O-NO 67 4,1 C 17,6 km/h (3 Bft)
15.04.2015 13:10 21,0 C 25,6 C 32 % 1023,5 hPa 0,0 mm 6,7 km/h (2 Bft) NO 45 3,7 C 3,1 km/h (1 Bft)
15.04.2015 13:15 21,3 C 24,9 C 31 % 1023,5 hPa 0,0 mm 7,8 km/h (2 Bft) N 360 3,5 C 11,4 km/h (2 Bft)
15.04.2015 13:20 21,1 C 24,1 C 32 % 1023,5 hPa 0,0 mm 8,5 km/h (2 Bft) NW 315 3,8 C 11,7 km/h (2 Bft)
15.04.2015 13:25 21,5 C 23,8 C 31 % 1023,5 hPa 0,0 mm 7,5 km/h (2 Bft) NO 45 3,7 C 0,0 km/h (0 Bft)
15.04.2015 13:30 21,7 C 23,6 C 32 % 1023,5 hPa 0,0 mm 5,4 km/h (1 Bft) N-NW 337 4,3 C 11,7 km/h (2 Bft)
15.04.2015 13:35 21,6 C 23,5 C 31 % 1023,5 hPa 0,0 mm 4,7 km/h (1 Bft) W-SW 247 3,7 C 6,7 km/h (2 Bft)
15.04.2015 13:40 21,9 C 24,2 C 31 % 1023,5 hPa 0,0 mm 5,7 km/h (1 Bft) NO 45 4,0 C 8,5 km/h (2 Bft)
15.04.2015 13:45 22,5 C 25,9 C 31 % 1023,2 hPa 0,0 mm 2,3 km/h (1 Bft) W 270 4,5 C 3,4 km/h (1 Bft)
15.04.2015 13:50 22,8 C 26,6 C 32 % 1023,2 hPa 0,0 mm 3,4 km/h (1 Bft) NW 315 5,2 C 13,5 km/h (3 Bft)
15.04.2015 13:55 22,5 C 26,4 C 31 % 1023,2 hPa 0,0 mm 7,8 km/h (2 Bft) NW 315 4,5 C 16,6 km/h (3 Bft)
15.04.2015 14:00 22,6 C 25,9 C 31 % 1023,2 hPa 0,0 mm 10,1 km/h (2 Bft) N-NW 337 4,6 C 13,5 km/h (3 Bft)
15.04.2015 14:05 22,6 C 25,8 C 31 % 1023,4 hPa 0,0 mm 9,1 km/h (2 Bft) NW 315 4,6 C 17,9 km/h (3 Bft)
15.04.2015 14:10 22,8 C 26,2 C 31 % 1023,4 hPa 0,0 mm 6,2 km/h (2 Bft) W-NW 292 4,8 C 3,9 km/h (1 Bft)
15.04.2015 14:15 22,7 C 26,7 C 31 % 1023,4 hPa 0,0 mm 4,9 km/h (1 Bft) N-NW 337 4,7 C 6,5 km/h (2 Bft)
15.04.2015 14:20 22,9 C 26,7 C 31 % 1023,4 hPa 0,0 mm 6,7 km/h (2 Bft) N-NW 337 4,9 C 10,4 km/h (2 Bft)
15.04.2015 14:25 22,8 C 26,3 C 29 % 1023,5 hPa 0,0 mm 8,5 km/h (2 Bft) O-NO 67 3,8 C 8,3 km/h (2 Bft)
15.04.2015 14:30 22,8 C 26,3 C 28 % 1023,5 hPa 0,0 mm 8,8 km/h (2 Bft) N-NO 22 3,3 C 18,4 km/h (3 Bft)
15.04.2015 14:35 22,5 C 26,0 C 25 % 1023,5 hPa 0,0 mm 8,0 km/h (2 Bft) NW 315 1,5 C 3,4 km/h (1 Bft)
15.04.2015 14:40 22,5 C 26,1 C 26 % 1023,5 hPa 0,0 mm 9,1 km/h (2 Bft) NW 315 2,0 C 8,0 km/h (2 Bft)
15.04.2015 14:45 23,0 C 26,1 C 25 % 1022,4 hPa 0,0 mm 8,0 km/h (2 Bft) N 360 1,9 C 10,9 km/h (2 Bft)
15.04.2015 14:50 22,7 C 26,3 C 26 % 1022,4 hPa 0,0 mm 8,3 km/h (2 Bft) W-NW 292 2,2 C 13,5 km/h (3 Bft)
15.04.2015 14:55 22,6 C 26,1 C 26 % 1022,4 hPa 0,0 mm 8,8 km/h (2 Bft) W 270 2,1 C 4,1 km/h (1 Bft)
15.04.2015 15:00 22,7 C 26,5 C 26 % 1022,4 hPa 0,0 mm 7,0 km/h (2 Bft) W 270 2,2 C 6,7 km/h (2 Bft)
15.04.2015 15:05 22,5 C 26,8 C 26 % 1021,9 hPa 0,0 mm 4,1 km/h (1 Bft) O-SO 112 2,0 C 9,1 km/h (2 Bft)
15.04.2015 15:10 22,2 C 26,8 C 25 % 1021,9 hPa 0,0 mm 4,9 km/h (1 Bft) NO 45 1,2 C 4,7 km/h (1 Bft)
15.04.2015 15:15 22,5 C 27,4 C 26 % 1021,9 hPa 0,0 mm 4,4 km/h (1 Bft) W-SW 247 2,0 C 7,8 km/h (2 Bft)
15.04.2015 15:20 22,5 C 27,4 C 27 % 1021,9 hPa 0,0 mm 4,7 km/h (1 Bft) N-NW 337 2,6 C 5,4 km/h (1 Bft)
15.04.2015 15:25 23,2 C 27,4 C 26 % 1021,3 hPa 0,0 mm 6,5 km/h (2 Bft) N 360 2,6 C 10,1 km/h (2 Bft)
15.04.2015 15:30 23,2 C 27,2 C 26 % 1021,3 hPa 0,0 mm 6,2 km/h (2 Bft) N-NO 22 2,6 C 8,0 km/h (2 Bft)
15.04.2015 15:35 22,8 C 27,0 C 26 % 1021,3 hPa 0,0 mm 6,5 km/h (2 Bft) N-NW 337 2,3 C 7,8 km/h (2 Bft)
15.04.2015 15:40 23,0 C 26,9 C 26 % 1021,3 hPa 0,0 mm 6,7 km/h (2 Bft) NW 315 2,5 C 9,6 km/h (2 Bft)
15.04.2015 15:45 23,0 C 26,9 C 26 % 1020,9 hPa 0,0 mm 6,7 km/h (2 Bft) W 270 2,5 C 8,8 km/h (2 Bft)
15.04.2015 15:50 23,2 C 26,6 C 27 % 1020,9 hPa 0,0 mm 7,3 km/h (2 Bft) W-NW 292 3,2 C 6,7 km/h (2 Bft)
15.04.2015 15:55 23,2 C 26,5 C 26 % 1020,9 hPa 0,0 mm 8,0 km/h (2 Bft) N-NW 337 2,6 C 19,2 km/h (3 Bft)
15.04.2015 16:00 22,9 C 26,4 C 27 % 1020,9 hPa 0,0 mm 7,8 km/h (2 Bft) NW 315 2,9 C 4,1 km/h (1 Bft)
15.04.2015 16:05 23,1 C 26,3 C 26 % 1020,7 hPa 0,0 mm 9,6 km/h (2 Bft) S 180 2,5 C 19,9 km/h (4 Bft)
15.04.2015 16:10 23,1 C 26,2 C 25 % 1020,7 hPa 0,0 mm 8,3 km/h (2 Bft) N-NW 337 2,0 C 8,8 km/h (2 Bft)
15.04.2015 16:15 22,5 C 26,6 C 26 % 1020,7 hPa 0,0 mm 6,0 km/h (2 Bft) N-NW 337 2,0 C 5,2 km/h (1 Bft)
15.04.2015 16:20 22,4 C 26,5 C 26 % 1020,7 hPa 0,0 mm 7,0 km/h (2 Bft) O 90 2,0 C 8,3 km/h (2 Bft)
15.04.2015 16:25 22,2 C 26,1 C 26 % 1020,4 hPa 0,0 mm 8,8 km/h (2 Bft) NO 45 1,8 C 14,8 km/h (3 Bft)
15.04.2015 16:30 22,3 C 26,1 C 26 % 1020,4 hPa 0,0 mm 9,1 km/h (2 Bft) W 270 1,9 C 9,8 km/h (2 Bft)
15.04.2015 16:35 22,3 C 25,9 C 26 % 1020,4 hPa 0,0 mm 9,8 km/h (2 Bft) NW 315 1,9 C 11,7 km/h (2 Bft)
15.04.2015 16:40 22,3 C 25,8 C 26 % 1020,4 hPa 0,0 mm 9,1 km/h (2 Bft) N-NW 337 1,9 C 14,8 km/h (3 Bft)
15.04.2015 16:45 22,0 C 25,5 C 25 % 1020,4 hPa 0,0 mm 8,5 km/h (2 Bft) N-NO 22 1,1 C 7,8 km/h (2 Bft)
15.04.2015 16:50 21,9 C 25,0 C 27 % 1020,4 hPa 0,0 mm 8,0 km/h (2 Bft) N-NW 337 2,1 C 9,1 km/h (2 Bft)
15.04.2015 16:55 21,7 C 24,0 C 26 % 1020,4 hPa 0,0 mm 7,5 km/h (2 Bft) W-NW 292 1,4 C 11,1 km/h (2 Bft)
15.04.2015 17:00 21,6 C 23,9 C 26 % 1020,4 hPa 0,0 mm 7,5 km/h (2 Bft) N-NO 22 1,3 C 0,0 km/h (0 Bft)
15.04.2015 17:05 21,3 C 24,0 C 26 % 1020,1 hPa 0,0 mm 6,5 km/h (2 Bft) N-NO 22 1,0 C 7,5 km/h (2 Bft)
15.04.2015 17:10 21,2 C 24,0 C 26 % 1020,1 hPa 0,0 mm 6,2 km/h (2 Bft) NO 45 0,9 C 10,1 km/h (2 Bft)
15.04.2015 17:15 21,3 C 24,1 C 26 % 1020,1 hPa 0,0 mm 6,0 km/h (2 Bft) NW 315 1,0 C 6,7 km/h (2 Bft)
15.04.2015 17:20 21,6 C 24,2 C 26 % 1020,1 hPa 0,0 mm 5,7 km/h (1 Bft) W-NW 292 1,3 C 9,3 km/h (2 Bft)
15.04.2015 17:25 21,4 C 23,5 C 26 % 1019,9 hPa 0,0 mm 6,7 km/h (2 Bft) N 360 1,1 C 4,4 km/h (1 Bft)
15.04.2015 17:30 21,3 C 23,0 C 27 % 1019,9 hPa 0,0 mm 6,2 km/h (2 Bft) N-NW 337 1,5 C 6,5 km/h (2 Bft)
15.04.2015 17:35 21,1 C 22,5 C 27 % 1019,9 hPa 0,0 mm 4,9 km/h (1 Bft) N 360 1,4 C 10,9 km/h (2 Bft)
15.04.2015 17:40 21,0 C 22,3 C 27 % 1019,9 hPa 0,0 mm 7,0 km/h (2 Bft) NO 45 1,3 C 12,4 km/h (3 Bft)
15.04.2015 17:45 21,0 C 22,0 C 26 % 1019,8 hPa 0,0 mm 8,0 km/h (2 Bft) NW 315 0,8 C 3,4 km/h (1 Bft)
15.04.2015 17:50 20,9 C 21,7 C 27 % 1019,8 hPa 0,0 mm 5,2 km/h (1 Bft) N-NO 22 1,2 C 9,3 km/h (2 Bft)
15.04.2015 17:55 20,7 C 21,5 C 27 % 1019,8 hPa 0,0 mm 5,2 km/h (1 Bft) N-NW 337 1,0 C 4,7 km/h (1 Bft)
15.04.2015 18:00 20,6 C 21,3 C 28 % 1019,8 hPa 0,0 mm 6,7 km/h (2 Bft) NW 315 1,5 C 11,7 km/h (2 Bft)
15.04.2015 18:05 20,3 C 21,1 C 28 % 1019,6 hPa 0,0 mm 6,5 km/h (2 Bft) N-NO 22 1,2 C 10,9 km/h (2 Bft)
15.04.2015 18:10 20,1 C 21,0 C 28 % 1019,6 hPa 0,0 mm 6,5 km/h (2 Bft) N-NO 22 1,0 C 5,7 km/h (1 Bft)
15.04.2015 18:15 19,9 C 20,8 C 29 % 1019,6 hPa 0,0 mm 5,2 km/h (1 Bft) NW 315 1,3 C 5,4 km/h (1 Bft)
15.04.2015 18:20 19,8 C 20,7 C 29 % 1019,6 hPa 0,0 mm 4,4 km/h (1 Bft) N-NW 337 1,3 C 0,0 km/h (0 Bft)
15.04.2015 18:25 19,7 C 20,6 C 29 % 1019,4 hPa 0,0 mm 3,1 km/h (1 Bft) N-NW 337 1,2 C 2,6 km/h (1 Bft)
15.04.2015 18:30 19,8 C 20,8 C 30 % 1019,4 hPa 0,0 mm 3,1 km/h (1 Bft) W-NW 292 1,7 C 7,8 km/h (2 Bft)
15.04.2015 18:35 19,6 C 20,9 C 30 % 1019,4 hPa 0,0 mm 4,4 km/h (1 Bft) N 360 1,6 C 4,9 km/h (1 Bft)
15.04.2015 18:40 19,4 C 20,8 C 30 % 1019,4 hPa 0,0 mm 3,4 km/h (1 Bft) N-NW 337 1,4 C 4,9 km/h (1 Bft)
15.04.2015 18:45 19,2 C 20,6 C 30 % 1019,3 hPa 0,0 mm 1,8 km/h (1 Bft) N-NW 337 1,2 C 6,0 km/h (2 Bft)
15.04.2015 18:50 19,2 C 20,4 C 31 % 1019,3 hPa 0,0 mm 2,6 km/h (1 Bft) W-NW 292 1,7 C 2,6 km/h (1 Bft)
15.04.2015 18:55 18,7 C 20,2 C 31 % 1019,3 hPa 0,0 mm 1,3 km/h (1 Bft) NW 315 1,2 C 0,0 km/h (0 Bft)
15.04.2015 19:00 18,5 C 20,0 C 31 % 1019,3 hPa 0,0 mm 0,3 km/h (0 Bft) NW 315 1,1 C 0,0 km/h (0 Bft)
15.04.2015 19:05 18,5 C 19,8 C 33 % 1019,1 hPa 0,0 mm 0,3 km/h (0 Bft) SW 225 1,9 C 4,1 km/h (1 Bft)
15.04.2015 19:10 18,4 C 19,6 C 36 % 1019,1 hPa 0,0 mm 1,3 km/h (1 Bft) S-SW 202 3,1 C 2,8 km/h (1 Bft)
15.04.2015 19:15 18,2 C 19,3 C 36 % 1019,1 hPa 0,0 mm 1,3 km/h (1 Bft) S 180 2,9 C 0,0 km/h (0 Bft)
15.04.2015 19:20 18,0 C 19,0 C 39 % 1019,1 hPa 0,0 mm 0,0 km/h (0 Bft) S-SO 157 3,8 C 0,0 km/h (0 Bft)
15.04.2015 19:25 17,6 C 18,5 C 40 % 1018,9 hPa 0,0 mm 1,0 km/h (0 Bft) S-SO 157 3,8 C 3,1 km/h (1 Bft)
15.04.2015 19:30 17,3 C 18,2 C 41 % 1018,9 hPa 0,0 mm 1,3 km/h (1 Bft) S-SO 157 3,9 C 0,0 km/h (0 Bft)
15.04.2015 19:35 17,0 C 18,0 C 42 % 1018,9 hPa 0,0 mm 1,0 km/h (0 Bft) S-SO 157 4,0 C 0,0 km/h (0 Bft)
15.04.2015 19:40 16,7 C 17,7 C 43 % 1018,9 hPa 0,0 mm 1,0 km/h (0 Bft) S-SO 157 4,1 C 3,6 km/h (1 Bft)
15.04.2015 19:45 16,2 C 17,2 C 44 % 1019,1 hPa 0,0 mm 2,1 km/h (1 Bft) S-SO 157 3,9 C 3,4 km/h (1 Bft)
15.04.2015 19:50 15,9 C 16,9 C 46 % 1019,1 hPa 0,0 mm 1,8 km/h (1 Bft) S 180 4,3 C 3,6 km/h (1 Bft)
15.04.2015 19:55 14,6 C 16,2 C 47 % 1019,1 hPa 0,0 mm 1,8 km/h (1 Bft) SO 135 3,4 C 0,0 km/h (0 Bft)
15.04.2015 20:00 14,6 C 15,8 C 47 % 1019,1 hPa 0,0 mm 2,3 km/h (1 Bft) SO 135 3,4 C 3,6 km/h (1 Bft)
15.04.2015 20:05 14,5 C 15,4 C 46 % 1018,9 hPa 0,0 mm 2,8 km/h (1 Bft) SO 135 3,0 C 4,1 km/h (1 Bft)
15.04.2015 20:10 14,6 C 15,1 C 46 % 1018,9 hPa 0,0 mm 2,8 km/h (1 Bft) S-SO 157 3,1 C 2,8 km/h (1 Bft)
15.04.2015 20:15 14,2 C 14,4 C 46 % 1018,9 hPa 0,0 mm 1,3 km/h (1 Bft) S-SO 157 2,8 C 0,0 km/h (0 Bft)
15.04.2015 20:20 14,0 C 13,9 C 45 % 1018,9 hPa 0,0 mm 0,5 km/h (0 Bft) S-SO 157 2,3 C 0,0 km/h (0 Bft)
15.04.2015 20:25 13,9 C 13,6 C 45 % 1018,9 hPa 0,0 mm 0,0 km/h (0 Bft) S-SO 157 2,2 C 0,0 km/h (0 Bft)
15.04.2015 20:30 13,6 C 13,2 C 45 % 1018,9 hPa 0,0 mm 0,0 km/h (0 Bft) SO 135 1,9 C 0,0 km/h (0 Bft)
15.04.2015 20:35 13,4 C 12,9 C 45 % 1018,9 hPa 0,0 mm 0,0 km/h (0 Bft) SO 135 1,7 C 0,0 km/h (0 Bft)
15.04.2015 20:40 13,2 C 12,7 C 45 % 1018,9 hPa 0,0 mm 0,0 km/h (0 Bft) SO 135 1,5 C 0,0 km/h (0 Bft)
15.04.2015 20:45 12,9 C 12,3 C 45 % 1018,8 hPa 0,0 mm 0,0 km/h (0 Bft) SO 135 1,3 C 0,0 km/h (0 Bft)
15.04.2015 20:50 12,7 C 12,1 C 45 % 1018,8 hPa 0,0 mm 0,0 km/h (0 Bft) SO 135 1,1 C 0,0 km/h (0 Bft)
15.04.2015 20:55 12,5 C 11,9 C 47 % 1018,8 hPa 0,0 mm 0,0 km/h (0 Bft) SO 135 1,5 C 0,0 km/h (0 Bft)
15.04.2015 21:00 12,2 C 11,6 C 47 % 1018,8 hPa 0,0 mm 0,0 km/h (0 Bft) SO 135 1,2 C 0,0 km/h (0 Bft)
15.04.2015 21:05 12,2 C 11,5 C 47 % 1018,9 hPa 0,0 mm 0,0 km/h (0 Bft) SO 135 1,2 C 0,0 km/h (0 Bft)
15.04.2015 21:10 11,7 C 11,2 C 47 % 1018,9 hPa 0,0 mm 0,0 km/h (0 Bft) SO 135 0,8 C 0,0 km/h (0 Bft)
15.04.2015 21:15 11,0 C 10,6 C 48 % 1018,9 hPa 0,0 mm 0,0 km/h (0 Bft) W-SW 247 0,4 C 0,0 km/h (0 Bft)
15.04.2015 21:20 11,1 C 10,6 C 48 % 1018,9 hPa 0,0 mm 0,0 km/h (0 Bft) W-SW 247 0,5 C 0,0 km/h (0 Bft)
15.04.2015 21:25 10,4 C 10,1 C 49 % 1019,1 hPa 0,0 mm 0,0 km/h (0 Bft) W-SW 247 0,2 C 0,0 km/h (0 Bft)
15.04.2015 21:30 10,2 C 9,8 C 51 % 1019,1 hPa 0,0 mm 0,0 km/h (0 Bft) SW 225 0,5 C 0,0 km/h (0 Bft)
15.04.2015 21:35 10,5 C 10,0 C 53 % 1019,1 hPa 0,0 mm 0,0 km/h (0 Bft) SO 135 1,3 C 0,0 km/h (0 Bft)
15.04.2015 21:40 10,3 C 9,8 C 53 % 1019,1 hPa 0,0 mm 0,8 km/h (0 Bft) S-SW 202 1,1 C 14,8 km/h (3 Bft)
15.04.2015 21:45 10,7 C 10,2 C 54 % 1019,3 hPa 0,0 mm 2,1 km/h (1 Bft) O-SO 112 1,8 C 4,1 km/h (1 Bft)
15.04.2015 21:50 10,9 C 10,4 C 53 % 1019,3 hPa 0,0 mm 2,3 km/h (1 Bft) SO 135 1,7 C 0,0 km/h (0 Bft)
15.04.2015 21:55 11,1 C 10,6 C 52 % 1019,3 hPa 0,0 mm 0,8 km/h (0 Bft) S-SW 202 1,6 C 4,9 km/h (1 Bft)
15.04.2015 22:00 11,1 C 10,7 C 53 % 1019,3 hPa 0,0 mm 1,8 km/h (1 Bft) O-SO 112 1,9 C 3,1 km/h (1 Bft)
15.04.2015 22:05 10,7 C 10,5 C 53 % 1019,1 hPa 0,0 mm 1,6 km/h (1 Bft) SO 135 1,5 C 0,0 km/h (0 Bft)
15.04.2015 22:10 10,1 C 10,0 C 54 % 1019,1 hPa 0,0 mm 0,5 km/h (0 Bft) O 90 1,2 C 0,0 km/h (0 Bft)
15.04.2015 22:15 9,6 C 9,5 C 54 % 1019,1 hPa 0,0 mm 0,0 km/h (0 Bft) O-NO 67 0,8 C 0,0 km/h (0 Bft)
15.04.2015 22:20 9,9 C 9,6 C 56 % 1019,1 hPa 0,0 mm 0,3 km/h (0 Bft) SO 135 1,5 C 0,0 km/h (0 Bft)
15.04.2015 22:25 9,5 C 9,2 C 56 % 1019,3 hPa 0,0 mm 0,3 km/h (0 Bft) NO 45 1,2 C 0,0 km/h (0 Bft)
15.04.2015 22:30 9,4 C 9,0 C 56 % 1019,3 hPa 0,0 mm 0,0 km/h (0 Bft) NO 45 1,1 C 0,0 km/h (0 Bft)
15.04.2015 22:35 9,3 C 8,9 C 56 % 1019,3 hPa 0,0 mm 0,0 km/h (0 Bft) NO 45 1,0 C 0,0 km/h (0 Bft)
15.04.2015 22:40 9,8 C 9,2 C 56 % 1019,3 hPa 0,0 mm 0,0 km/h (0 Bft) O-NO 67 1,4 C 0,0 km/h (0 Bft)
15.04.2015 22:45 10,1 C 9,5 C 55 % 1019,2 hPa 0,0 mm 0,0 km/h (0 Bft) SO 135 1,5 C 0,0 km/h (0 Bft)
15.04.2015 22:50 10,0 C 9,4 C 54 % 1019,2 hPa 0,0 mm 0,0 km/h (0 Bft) S-SO 157 1,1 C 0,0 km/h (0 Bft)
15.04.2015 22:55 9,6 C 9,1 C 54 % 1019,2 hPa 0,0 mm 0,0 km/h (0 Bft) S-SO 157 0,8 C 0,0 km/h (0 Bft)
15.04.2015 23:00 9,3 C 8,9 C 54 % 1019,2 hPa 0,0 mm 0,0 km/h (0 Bft) S-SO 157 0,5 C 0,0 km/h (0 Bft)
15.04.2015 23:05 9,6 C 9,0 C 55 % 1019,2 hPa 0,0 mm 0,0 km/h (0 Bft) S-SO 157 1,0 C 0,0 km/h (0 Bft)
15.04.2015 23:06 9,7 C 9,1 C 55 % 1019,2 hPa 0,0 mm 0,0 km/h (0 Bft) SO 135 1,1 C 0,0 km/h (0 Bft)
15.04.2015 23:11 9,7 C 9,1 C 55 % 1019,2 hPa 0,0 mm 0,0 km/h (0 Bft) S 180 1,1 C 0,0 km/h (0 Bft)
15.04.2015 23:16 9,7 C 9,1 C 55 % 1019,2 hPa 0,0 mm 0,0 km/h (0 Bft) S-SO 157 1,1 C 0,0 km/h (0 Bft)
15.04.2015 23:21 9,2 C 8,7 C 54 % 1019,0 hPa 0,0 mm 0,0 km/h (0 Bft) SO 135 0,4 C 0,0 km/h (0 Bft)
15.04.2015 23:26 8,6 C 8,3 C 54 % 1019,0 hPa 0,0 mm 0,0 km/h (0 Bft) S-SO 157 -0,2 C 0,0 km/h (0 Bft)
15.04.2015 23:31 8,3 C 8,0 C 55 % 1019,0 hPa 0,0 mm 0,0 km/h (0 Bft) O-SO 112 -0,2 C 0,0 km/h (0 Bft)
15.04.2015 23:35 8,3 C 8,0 C 55 % 1019,0 hPa 0,0 mm 0,0 km/h (0 Bft) O-SO 112 -0,2 C 0,0 km/h (0 Bft)
15.04.2015 23:36 8,3 C 7,9 C 55 % 1019,0 hPa 0,0 mm 0,0 km/h (0 Bft) O-SO 112 -0,2 C 0,0 km/h (0 Bft)
15.04.2015 23:41 7,8 C 7,6 C 56 % 1019,1 hPa 0,0 mm 0,0 km/h (0 Bft) O-SO 112 -0,4 C 0,0 km/h (0 Bft)
15.04.2015 23:46 7,9 C 7,6 C 56 % 1019,1 hPa 0,0 mm 0,0 km/h (0 Bft) O-SO 112 -0,3 C 0,0 km/h (0 Bft)
15.04.2015 23:51 7,8 C 7,6 C 57 % 1019,1 hPa 0,0 mm 0,0 km/h (0 Bft) O-SO 112 -0,2 C 0,0 km/h (0 Bft)
15.04.2015 23:56 7,4 C 7,3 C 57 % 1019,1 hPa 0,0 mm 0,0 km/h (0 Bft) O-SO 112 -0,5 C 0,0 km/h (0 Bft)
_ Min-Zeit 06:45 06:45 16:45 21:00 - 23:56 - - 06:45 23:56
Minimum _ 4,2 C 4,0 C 25 % 1018,8 hPa - 0,0 km/h (0 Bft) - - -2,2 C 0,0 km/h (0 Bft)
_ Max-Zeit 15:55 09:50 07:05 00:00 23:56 14:00 - - 13:50 16:05
Maximum _ 23,2 C 27,5 C 64 % 1026,2 hPa 0,0 mm 10,1 km/h
N-NW (2 Bft)
- - 5,2 C 19,9 km/h
S (4 Bft)
Durchschnitt _ 13,5 C 15,8 C 46 % 1022,6 hPa #0,0 mm 2,4 km/h (1 Bft) N-NW - 1,4 C 3,3 km/h (1 Bft)